Location: Landers
(34.2911°N, 116.3835°W)
Time: 00:54:08
(UTC-08:00)

ISS - Visible Passes

Search period start: 01 December 2020 00:00
Search period end: 11 December 2020 00:00
Orbit: 418 x 420 km, 51.6° (Epoch: 01 December)

Date Brightness Start Highest point End Pass type
(mag) Time Alt. Az. Time Alt. Az. Time Alt. Az.
05 Dec -1.8 17:53:21 10° NNW 17:54:56 17° N 17:54:56 17° N visible
06 Dec -1.7 17:06:24 10° N 17:08:01 13° NNE 17:09:38 10° ENE visible
06 Dec -1.3 18:41:49 10° NW 18:42:52 19° NW 18:42:52 19° NW visible
07 Dec -3.6 17:54:16 10° NW 17:57:34 51° NE 17:58:08 44° ENE visible
08 Dec -2.8 17:06:51 10° NNW 17:09:51 29° NE 17:12:50 10° E visible
08 Dec -1.4 18:43:53 10° WNW 18:46:31 22° SW 18:46:51 21° SW visible
09 Dec -2.4 17:55:48 10° WNW 17:58:59 41° SW 18:02:08 10° SSE visible
10 Dec -3.7 17:08:02 10° NW 17:11:23 83° SW 17:14:43 10° SE visible
